Capitol Logistics 3256


KEYW
Key West International Airport
Key West, Florida, US
KMTH
The Florida Keys Marathon International Airport
Marathon, Florida, US

Activity Log

Date Flight Route Aircraft Duration
No Flights Yet

Route Details

Aircraft Information
Primary: Saab 340AF
Backup: Not Available
Route Data
Distance: 40nm
Sched. Duration: 0h 45m
Avg. Duration: 0h 00m (-45m)
Times Flown: 0
Recm'd Route: VPKOE
Planned Altitude: 3,500ft
Origin Wx: KEYW 060653Z AUTO 13015KT 7SM SCT012 29/27 A2992 RMK AO2 SLP132 T02890267
Dest. Wx: KMTH 060653Z AUTO 12011G17KT 8SM -RA FEW017 BKN023 BKN029 29/27 A2993 RMK AO2 RAB47 SLP134 P0000 T02890267
Notes:

Financial History
Total Freight: 0lbs
Average Load: 0lbs/flt
Fuel Used: 0lbs
Avg. Fuel Used: 0lbs/flt
Fuel Expense: $0
Avg. Fuel Expense: $0
Avg. Fuel Cost: $0/lbs
Total Gross Income: $0
Pilot Pay: $0
Total Expenses: $0
Total Revenue: $0
Average Revenue: $0